When you browse on this site, cookies collect data to enhance your experience and personalize the content and advertising you see.
Visit our Privacy Policy to learn more. By continuing to use the site, you agree to this use of cookies and data.
  • en Suisse
  • Liste des pays
  • À 7 jours
  • Température de l'eau
  • Carte satellitaire
  • Carte météo
  • Widgets météo
  • user-avatar
    Se connecter

    Météo par heure à Razdole

    Ce jour, 18 Novembre, Dimanche

    Heure Température Précipitation Vent Pression Humidité
    00:00 -5°C° 0.1 mm 3 m/s 743 mmHg 86%
    01:00 -5°C° 0.1 mm 4 m/s 742 mmHg 87%
    02:00 -5°C° 0.1 mm 4 m/s 742 mmHg 88%
    03:00 -5°C° 0.1 mm 4 m/s 742 mmHg 89%
    04:00 -5°C° 0.1 mm 4 m/s 742 mmHg 89%
    05:00 -5°C° 0.1 mm 4 m/s 742 mmHg 87%
    06:00 -5°C° 0.1 mm 4 m/s 741 mmHg 85%
    07:00 -5°C° 0.1 mm 4 m/s 741 mmHg 84%
    08:00 -5°C° 0 mm 4 m/s 741 mmHg 82%
    09:00 -5°C° 0 mm 4 m/s 741 mmHg 81%
    10:00 -4°C° 0 mm 4 m/s 741 mmHg 79%
    11:00 -4°C° 0.1 mm 4 m/s 741 mmHg 79%
    12:00 -4°C° 0.1 mm 4 m/s 742 mmHg 79%
    13:00 -4°C° 0.1 mm 4 m/s 742 mmHg 78%
    14:00 -4°C° 0 mm 4 m/s 742 mmHg 79%
    15:00 -4°C° 0 mm 4 m/s 742 mmHg 80%
    16:00 -4°C° 0 mm 4 m/s 742 mmHg 81%
    17:00 -4°C° 0 mm 3 m/s 742 mmHg 79%
    18:00 -5°C° 0 mm 3 m/s 742 mmHg 76%
    19:00 -5°C° 0 mm 3 m/s 743 mmHg 73%
    20:00 -5°C° 0 mm 3 m/s 743 mmHg 71%
    21:00 -5°C° 0 mm 3 m/s 743 mmHg 70%
    22:00 -5°C° 0 mm 3 m/s 743 mmHg 68%
    23:00 -5°C° 0 mm 3 m/s 743 mmHg 70%

    Demain, 19 Novembre, Lundi

    Heure Température Précipitation Vent Pression Humidité
    00:00 -5°C° 0 mm 3 m/s 743 mmHg 73%
    01:00 -5°C° 0 mm 3 m/s 743 mmHg 75%
    02:00 -5°C° 0 mm 3 m/s 743 mmHg 78%
    03:00 -5°C° 0 mm 3 m/s 744 mmHg 80%
    04:00 -5°C° 0 mm 3 m/s 744 mmHg 83%
    05:00 -5°C° 0 mm 3 m/s 744 mmHg 84%
    06:00 -5°C° 0 mm 3 m/s 744 mmHg 85%
    07:00 -5°C° 0 mm 3 m/s 744 mmHg 86%
    08:00 -5°C° 0 mm 3 m/s 744 mmHg 86%
    09:00 -5°C° 0 mm 3 m/s 744 mmHg 87%
    10:00 -4°C° 0 mm 3 m/s 745 mmHg 87%
    11:00 -4°C° 0.1 mm 3 m/s 745 mmHg 87%
    12:00 -4°C° 0.1 mm 3 m/s 745 mmHg 88%
    13:00 -4°C° 0.1 mm 3 m/s 745 mmHg 88%
    14:00 -3°C° 0.1 mm 2 m/s 745 mmHg 90%
    15:00 -3°C° 0.1 mm 2 m/s 745 mmHg 91%
    16:00 -3°C° 0.1 mm 2 m/s 745 mmHg 93%
    17:00 -3°C° 0.1 mm 2 m/s 745 mmHg 94%
    18:00 -3°C° 0.1 mm 2 m/s 744 mmHg 94%
    19:00 -3°C° 0.1 mm 2 m/s 744 mmHg 95%
    20:00 -3°C° 0.1 mm 2 m/s 744 mmHg 96%
    21:00 -3°C° 0.1 mm 2 m/s 744 mmHg 96%
    22:00 -3°C° 0.1 mm 2 m/s 744 mmHg 96%
    23:00 -3°C° 0.2 mm 2 m/s 744 mmHg 96%

    Après-demain, 20 Novembre, Mardi

    Heure Température Précipitation Vent Pression Humidité
    00:00 -3°C° 0.2 mm 2 m/s 744 mmHg 96%
    01:00 -3°C° 0.2 mm 2 m/s 744 mmHg 97%
    02:00 -3°C° 0.2 mm 2 m/s 744 mmHg 96%
    03:00 -3°C° 0.2 mm 2 m/s 743 mmHg 96%
    04:00 -3°C° 0.2 mm 2 m/s 743 mmHg 96%
    05:00 -3°C° 0.1 mm 2 m/s 743 mmHg 95%
    06:00 -5°C° 0.1 mm 3 m/s 743 mmHg 94%
    07:00 -5°C° 0.1 mm 3 m/s 743 mmHg 94%
    08:00 -5°C° 0.1 mm 3 m/s 743 mmHg 92%
    09:00 -5°C° 0.1 mm 3 m/s 743 mmHg 91%
    10:00 -5°C° 0.1 mm 3 m/s 743 mmHg 89%
    11:00 -5°C° 0 mm 3 m/s 743 mmHg 87%
    12:00 -5°C° 0 mm 3 m/s 743 mmHg 86%
    13:00 -5°C° 0 mm 3 m/s 742 mmHg 84%
    14:00 -5°C° 0 mm 3 m/s 742 mmHg 84%
    15:00 -6°C° 0 mm 3 m/s 742 mmHg 83%
    16:00 -6°C° 0 mm 3 m/s 742 mmHg 83%
    17:00 -6°C° 0 mm 3 m/s 742 mmHg 84%
    18:00 -6°C° 0 mm 3 m/s 741 mmHg 85%
    19:00 -7°C° 0 mm 3 m/s 741 mmHg 86%
    20:00 -7°C° 0.2 mm 3 m/s 741 mmHg 88%
    21:00 -6°C° 0.2 mm 3 m/s 740 mmHg 89%
    22:00 -7°C° 0.2 mm 4 m/s 740 mmHg 91%
    23:00 -7°C° 0.3 mm 4 m/s 739 mmHg 91%

    21 Novembre, Mercredi

    Heure Température Précipitation Vent Pression Humidité
    00:00 -7°C° 0.3 mm 4 m/s 739 mmHg 91%
    01:00 -7°C° 0.3 mm 4 m/s 739 mmHg 91%
    02:00 -7°C° 0.3 mm 5 m/s 738 mmHg 91%
    03:00 -7°C° 0.3 mm 5 m/s 738 mmHg 91%
    04:00 -7°C° 0.3 mm 5 m/s 737 mmHg 91%
    05:00 -7°C° 0.2 mm 5 m/s 737 mmHg 91%
    06:00 -7°C° 0.2 mm 5 m/s 737 mmHg 91%
    07:00 -7°C° 0.2 mm 5 m/s 736 mmHg 91%
    08:00 -7°C° 0.1 mm 5 m/s 736 mmHg 91%
    09:00 -7°C° 0.1 mm 5 m/s 736 mmHg 90%
    10:00 -7°C° 0.1 mm 5 m/s 736 mmHg 89%
    11:00 -6°C° 0.2 mm 5 m/s 736 mmHg 89%
    12:00 -6°C° 0.2 mm 5 m/s 735 mmHg 89%
    13:00 -6°C° 0.2 mm 5 m/s 735 mmHg 89%
    14:00 -6°C° 0.4 mm 5 m/s 735 mmHg 90%
    15:00 -6°C° 0.4 mm 5 m/s 735 mmHg 90%
    16:00 -7°C° 0.4 mm 4 m/s 734 mmHg 91%
    17:00 -7°C° 0.1 mm 4 m/s 734 mmHg 91%
    18:00 -7°C° 0.1 mm 4 m/s 734 mmHg 91%
    19:00 -7°C° 0.1 mm 4 m/s 734 mmHg 91%
    20:00 -7°C° 0.1 mm 4 m/s 734 mmHg 91%
    21:00 -6°C° 0.1 mm 3 m/s 734 mmHg 91%
    22:00 -6°C° 0.1 mm 3 m/s 734 mmHg 91%
    23:00 -7°C° 0.1 mm 3 m/s 734 mmHg 91%

    22 Novembre, Jeudi

    Heure Température Précipitation Vent Pression Humidité
    00:00 -8°C° 0.1 mm 3 m/s 734 mmHg 91%
    01:00 -9°C° 0.1 mm 3 m/s 734 mmHg 91%
    02:00 -9°C° 0 mm 3 m/s 734 mmHg 92%
    03:00 -8°C° 0 mm 2 m/s 734 mmHg 93%
    04:00 -8°C° 0 mm 2 m/s 734 mmHg 94%
    05:00 -8°C° 0.1 mm 2 m/s 734 mmHg 94%
    06:00 -8°C° 0.1 mm 2 m/s 734 mmHg 94%
    07:00 -8°C° 0.1 mm 2 m/s 734 mmHg 94%
    08:00 -8°C° 0 mm 2 m/s 733 mmHg 93%
    09:00 -9°C° 0 mm 3 m/s 733 mmHg 92%
    10:00 -9°C° 0 mm 3 m/s 733 mmHg 90%
    11:00 -10°C° 0 mm 4 m/s 732 mmHg 89%
    12:00 -10°C° 0 mm 5 m/s 731 mmHg 87%
    13:00 -10°C° 0 mm 5 m/s 730 mmHg 85%
    14:00 -10°C° 0.2 mm 5 m/s 730 mmHg 87%
    15:00 -10°C° 0.2 mm 6 m/s 729 mmHg 88%
    16:00 -10°C° 0.2 mm 6 m/s 729 mmHg 90%
    17:00 -10°C° 0.4 mm 5 m/s 728 mmHg 90%
    18:00 -10°C° 0.4 mm 5 m/s 728 mmHg 91%
    19:00 -9°C° 0.4 mm 4 m/s 727 mmHg 92%
    20:00 -9°C° 0.4 mm 4 m/s 727 mmHg 93%
    21:00 -9°C° 0.4 mm 4 m/s 727 mmHg 94%
    22:00 -8°C° 0.4 mm 3 m/s 727 mmHg 94%
    23:00 -8°C° 0.2 mm 3 m/s 727 mmHg 91%

    23 Novembre, Vendredi

    Heure Température Précipitation Vent Pression Humidité
    00:00 -10°C° 0.2 mm 4 m/s 727 mmHg 89%
    01:00 -10°C° 0.2 mm 4 m/s 727 mmHg 86%
    02:00 -12°C° 0 mm 4 m/s 728 mmHg 87%
    03:00 -13°C° 0 mm 3 m/s 728 mmHg 88%
    04:00 -14°C° 0 mm 3 m/s 729 mmHg 89%
    05:00 -15°C° 0 mm 3 m/s 729 mmHg 92%
    06:00 -15°C° 0 mm 3 m/s 730 mmHg 94%
    07:00 -15°C° 0 mm 2 m/s 730 mmHg 96%
    08:00 -15°C° 0.1 mm 3 m/s 731 mmHg 93%
    09:00 -14°C° 0.1 mm 4 m/s 731 mmHg 91%
    10:00 -12°C° 0.1 mm 4 m/s 732 mmHg 88%
    11:00 -12°C° 0 mm 4 m/s 732 mmHg 86%
    12:00 -12°C° 0 mm 4 m/s 733 mmHg 84%
    13:00 -13°C° 0 mm 5 m/s 733 mmHg 81%
    14:00 -14°C° 0 mm 4 m/s 733 mmHg 83%
    15:00 -15°C° 0 mm 4 m/s 734 mmHg 85%
    16:00 -15°C° 0 mm 3 m/s 734 mmHg 87%
    17:00 -15°C° 0 mm 3 m/s 734 mmHg 87%
    18:00 -15°C° 0 mm 3 m/s 735 mmHg 87%
    19:00 -16°C° 0 mm 4 m/s 735 mmHg 87%
    20:00 -15°C° 0.1 mm 4 m/s 735 mmHg 88%
    21:00 -14°C° 0.1 mm 4 m/s 735 mmHg 89%
    22:00 -13°C° 0.1 mm 5 m/s 735 mmHg 90%
    23:00 -12°C° 0.1 mm 5 m/s 735 mmHg 90%
    Voir plus